Temp
74 80 82 81 79 81 78 81 74 80 82 84 88 90 94 97 98 98 97 99 99 100 96 95 95 94 95 98 96 97 93 91 88 87 88 87 86 86 86 86 86 85 85 86
67 76 78 75 82 81 82 82 83 84 84 91 93 93 93 93 93 92 94 97 99 100 100 99 97 95 95 95 97 96 92 92 90 87 86 86 86 86 85 85 85 85 85 84
58 70 72 68 77 81 82 85 84 79 86 91 90 90 91 92 93 93 95 96 97 99 99 99 100 98 96 95 96 94 91 91 90 88 86 86 86 85 84 84 85 84 84 85
57 63 53 73 84 84 82 86 89 89 90 93 90 93 95 96 94 93 96 97 98 100 99 98 104 105 99 99 92 91 90 89 90 88 87 86 85 84 84 85 84 84 84 84
55 58 66 72 79 79 77 79 90 89 91 94 92 93 90 95 97 96 96 96 96 99 100 98 100 99 96 96 93 91 90 89 89 89 88 86 85 84 85 85 84 84 85 84
57 53 53 69 82 88 87 70 84 87 87 88 89 80 81 86 90 90 91 92 91 93 94 93 92 98 95 95 93 90 90 90 90 88 88 87 86 84 85 85 85 87 85 85
54 53 63 72 78 84 66 61 76 79 84 87 82 80 82 86 86 88 88 89 91 91 89 90 91 94 89 91 92 93 92 91 89 88 87 87 86 85 85 84 85 84 84 85
54 52 50 72 74 63 68 73 74 75 76 75 78 81 82 83 83 84 84 86 89 89 89 91 90 91 88 86 91 95 91 90 88 87 89 91 85 85 85 84 82 82 82 83
57 58 69 71 71 74 77 73 73 73 76 75 76 76 78 78 80 82 83 82 86 89 88 89 89 91 87 86 91 92 92 88 87 87 87 86 85 84 85 83 83 82 83 83
58 63 66 70 74 75 75 74 75 76 76 76 74 75 75 78 79 80 81 80 83 84 88 88 94 93 90 89 89 89 88 88 87 86 85 86 89 87 86 85 83 83 83 83
55 61 65 68 70 72 72 73 74 75 75 74 74 74 75 75 76 78 79 79 81 82 86 87 87 88 90 91 89 88 88 88 87 88 84 85 86 86 86 86 83 86 86 86
47 56 55 57 64 69 70 72 73 73 73 75 75 73 74 74 75 77 77 77 79 85 85 85 85 85 85 85 87 88 86 88 88 89 88 87 86 84 51 54 51 48 50 64
48 54 56 59 63 66 65 68 72 73 73 72 74 74 73 72 73 73 77 77 80 83 85 84 84 83 84 84 85 86 86 86 89 85 91 86 86 85 82 57 46 47 46 47
47 47 46 52 55 63 65 67 68 71 73 73 73 74 73 73 74 75 76 76 78 82 80 80 80 80 83 84 83 82 83 64 89 89 86 84 85 84 87 79 77 76 52 52
55 58 52 55 59 61 64 64 63 64 67 70 73 72 72 71 73 75 76 75 79 80 79 78 77 77 83 84 82 82 85 86 86 81 79 77 80 80 80 77 76 76 75 61
57 59 58 54 53 58 60 61 61 62 65 68 70 71 71 72 74 74 73 72 73 71 74 73 73 78 80 82 82 81 79 70 76 80 80 79 80 77 76 75 75 75 74 73
52 50 51 50 51 55 57 61 62 63 65 66 66 68 68 67 71 68 69 70 70 74 73 72 74 76 81 82 82 83 83 82 75 83 83 82 81 79 77 77 75 76 75 65
51 51 51 54 56 56 58 61 60 57 57 61 63 64 64 61 63 58 61 67 68 68 70 73 76 76 79 82 85 86 85 85 85 84 84 80 81 79 78 77 77 76 75 65
51 50 51 51 51 51 51 52 52 52 53 54 54 53 53 52 53 54 54 56 57 56 58 67 68 72 74 73 78 82 80 79 81 81 81 72 76 76 73 70 70 70 71 72
50 51 51 51 51 50 50 51 52 52 52 51 50 50 49 50 51 53 54 51 52 54 57 59 68 71 70 71 73 79 78 78 78 75 72 76 76 72 70 64 70 70 68 67
55 51 50 49 49 50 51 51 51 51 52 53 50 49 48 49 49 50 49 48 50 53 56 57 59 64 68 66 68 70 72 71 71 70 70 70 70 70 67 65 65 63 62 63
57 58 55 52 50 49 50 51 51 51 52 51 50 50 49 49 49 49 49 48 50 52 52 54 55 59 63 66 67 67 69 69 68 68 66 65 64 64 64 63 62 62 61 59
57 58 60 58 56 54 55 53 52 53 51 51 52 52 49 49 49 48 47 50 52 52 52 53 53 55 56 59 59 58 59 58 59 61 64 65 63 61 60 60 61 60 57 56
58 59 59 61 61 60 56 57 59 58 58 58 59 59 57 57 60 63 60 56 55 57 59 56 57 56 59 58 56 54 54 55 56 57 58 56 60 61 63 63 59 60 57 52
58 60 60 60 59 59 59 59 60 59 59 58 59 60 61 62 59 60 63 62 56 61 62 58 57 59 66 66 65 63 61 57 52 54 55 55 56 56 58 60 61 61 61 57
59 61 62 61 62 63 62 62 59 58 59 59 59 60 61 62 62 62 63 59 62 60 63 63 63 65 65 65 66 66 65 64 63 61 58 55 53 52 53 53 54 54 55 57
62 57 63 63 64 63 62 61 60 59 58 60 59 61 61 61 61 61 58 63 63 63 62 63 64 63 65 64 64 64 65 64 56 64 65 62 60 56 53 53 53 52 53 52
MSLP
988.96 987.31 986.02 986.02 986.70 986.94 987.01 987.29 987.47 987.13 986.85 987.41 987.62 987.88 987.92 988.37 988.92 989.24 989.90 990.46 991.07 991.60 992.31 993.37 994.28 995.74 996.88 997.78 998.91 999.90 1001.10 1002.05 1002.84 1003.91 1004.64 1005.47 1006.04 1006.53 1007.09 1007.61 1007.94 1008.55 1008.98 1009.39
990.39 988.64 987.66 986.52 985.78 986.39 986.64 987.04 987.04 986.87 986.36 987.17 987.94 988.52 988.84 989.39 989.87 990.23 990.69 991.23 991.73 992.28 992.78 993.37 994.03 994.95 995.89 996.73 997.54 998.71 999.56 1000.28 1001.55 1002.52 1003.42 1004.10 1004.84 1005.31 1006.09 1006.68 1007.05 1007.51 1007.93 1008.34
992.05 990.71 988.83 987.11 985.91 985.70 986.38 986.53 986.85 986.46 986.49 986.95 987.94 988.65 989.28 990.08 990.78 991.31 991.78 992.05 992.34 992.62 993.08 993.47 993.98 994.65 995.26 996.05 996.84 997.62 998.59 999.48 1000.24 1001.22 1002.11 1002.87 1003.64 1004.44 1005.01 1005.38 1006.13 1006.51 1006.85 1007.17
994.11 992.13 989.97 988.28 987.15 986.93 986.45 986.47 986.70 987.02 986.79 987.46 988.16 988.84 989.55 990.40 991.25 992.01 992.39 992.68 992.93 993.07 993.17 993.29 993.55 994.00 994.76 995.46 996.41 997.14 997.90 998.58 999.31 1000.17 1001.02 1001.87 1002.68 1003.23 1003.87 1004.52 1004.89 1005.38 1005.77 1006.08
995.19 993.14 991.23 989.43 988.02 987.52 987.47 987.25 987.33 987.35 987.64 988.00 989.28 989.97 990.86 991.50 992.00 992.70 993.24 993.51 993.63 993.64 993.27 993.28 993.34 993.55 994.28 995.11 995.80 996.62 997.30 997.86 998.48 999.20 999.96 1000.74 1001.33 1001.99 1002.76 1003.45 1003.91 1004.15 1004.53 1004.97
996.71 994.46 992.07 990.74 988.92 988.22 988.26 989.22 989.75 989.26 989.29 989.43 990.36 991.47 992.85 993.34 993.73 994.19 994.51 994.78 994.78 994.67 994.28 994.16 994.03 993.66 993.86 994.61 995.31 995.99 996.45 997.02 997.82 998.42 999.01 999.55 1000.20 1000.99 1001.74 1002.31 1002.71 1003.28 1003.35 1003.46
998.28 996.30 993.61 992.59 991.55 990.22 990.67 994.05 993.07 992.15 991.34 991.42 992.29 993.78 994.48 994.74 995.37 995.63 995.65 995.64 995.35 995.16 994.92 994.66 994.53 994.30 994.36 994.66 994.46 994.89 995.65 996.31 997.00 997.61 998.20 998.74 999.55 1000.24 1000.88 1001.44 1001.91 1002.30 1002.51 1002.72
999.26 997.43 995.95 995.75 994.29 994.03 995.31 995.47 995.25 995.00 994.82 994.67 994.83 995.26 995.60 995.96 996.35 996.45 996.45 996.26 995.74 995.22 994.95 994.70 994.48 994.43 994.37 994.55 994.48 994.49 994.85 995.45 996.15 996.80 997.49 998.09 998.83 999.53 1000.15 1000.80 1001.22 1001.50 1001.85 1002.04
999.92 998.40 996.78 997.29 996.71 997.16 996.91 996.77 996.88 997.06 997.07 997.14 996.97 996.97 997.33 997.28 997.24 997.09 997.00 996.95 996.42 995.48 994.85 994.52 994.25 994.13 994.35 994.42 994.43 994.53 994.75 994.97 995.51 996.24 996.94 997.60 998.24 999.05 999.77 1000.22 1000.64 1000.95 1001.24 1001.37
1001.07 1000.01 998.75 998.50 998.19 998.25 998.24 998.27 998.40 998.52 998.47 998.52 998.49 998.38 998.18 997.93 997.67 997.57 997.50 997.48 996.91 995.98 994.80 994.26 993.87 994.07 994.40 994.40 994.47 994.44 994.51 994.79 995.28 995.94 996.62 997.28 997.90 998.64 999.33 999.70 1000.10 1000.39 1000.58 1000.82
1002.85 1001.64 1000.55 999.65 999.61 999.44 999.38 999.30 999.37 999.44 999.39 999.35 999.39 999.24 999.01 998.81 998.88 998.73 998.31 997.72 997.00 995.93 994.98 994.60 994.39 994.53 994.49 994.18 994.17 994.24 994.47 994.73 995.18 995.71 996.43 997.06 997.80 998.67 999.37 999.56 999.72 999.89 1000.20 1000.39
1004.98 1003.90 1003.23 1002.22 1001.30 1000.55 999.97 999.53 999.39 999.51 999.62 999.69 999.74 999.86 999.95 999.92 999.83 999.32 998.89 997.84 996.68 995.65 995.47 995.33 995.40 995.25 995.25 995.00 994.45 994.28 994.44 994.73 995.02 995.34 995.83 996.66 997.47 998.65 1000.36 1000.31 1000.33 1000.23 1000.36 1000.45
1006.41 1005.90 1004.25 1003.40 1002.63 1001.87 1001.28 1000.59 999.84 999.69 999.60 999.62 999.80 1000.02 1000.35 1000.29 1000.11 999.39 998.87 998.14 997.06 996.05 995.55 995.75 995.83 995.84 995.78 995.54 995.08 994.53 994.60 994.67 994.53 995.02 995.02 995.77 996.63 997.80 999.35 1001.15 1001.20 1001.00 1001.08 1001.51
1005.86 1005.58 1004.20 1003.16 1002.18 1002.29 1001.80 1001.44 1000.69 999.98 999.72 999.53 999.67 1000.04 1000.13 1000.02 999.67 999.16 998.69 998.42 997.59 996.58 996.41 996.33 996.42 996.24 996.13 995.98 995.70 995.41 994.94 994.91 994.27 994.57 995.35 995.76 996.23 996.94 997.54 999.54 1000.37 1000.90 1001.23 1001.41
1002.89 1002.41 1002.36 1001.85 1001.89 1001.66 1001.66 1001.67 1001.37 1000.80 1000.07 999.69 999.48 999.40 999.77 999.55 998.89 998.41 998.38 998.25 997.33 996.64 996.62 996.71 996.86 996.73 996.41 996.15 996.00 995.68 995.20 994.99 995.03 995.72 996.33 996.89 997.29 997.67 998.25 999.18 1000.04 1000.44 1000.92 1001.26
1002.36 1001.66 1001.05 1000.56 1001.13 1001.41 1001.44 1001.36 1001.18 1001.11 1000.63 1000.15 999.73 999.46 999.09 999.18 998.88 998.42 998.61 998.45 997.82 997.33 996.93 996.86 997.02 997.18 996.99 996.38 996.25 996.18 995.96 995.86 995.65 996.19 996.75 997.25 997.65 998.27 998.80 999.29 999.79 1000.23 1000.72 1001.22
1003.41 1002.64 1001.60 1000.79 1001.24 1001.60 1001.69 1001.69 1001.37 1001.00 1000.65 1000.43 1000.15 1000.18 1000.26 1000.01 999.48 999.37 998.96 998.50 998.32 997.38 997.03 996.96 997.24 997.01 996.91 996.31 996.21 996.06 996.10 996.20 996.10 996.27 996.52 996.94 997.64 998.34 998.97 999.43 999.85 1000.11 1000.48 1001.59
1004.81 1003.88 1002.76 1002.01 1001.78 1002.11 1002.31 1002.08 1001.81 1001.56 1000.66 1000.05 1000.36 1000.45 1000.39 1000.38 1000.43 1000.45 999.96 998.81 999.03 998.28 997.79 997.71 997.35 997.15 996.70 996.11 995.74 995.76 995.79 995.86 995.93 996.19 996.62 997.25 997.64 998.26 998.88 999.31 999.82 1000.34 1000.83 1001.92
1006.14 1005.17 1004.47 1003.81 1003.69 1003.71 1003.53 1003.37 1002.92 1002.44 1001.40 1000.54 1000.54 1001.24 1001.51 1001.85 1002.04 1001.78 1001.60 1000.67 1000.41 1000.79 1000.81 998.49 997.73 997.72 996.99 996.69 996.46 996.01 996.07 996.46 996.84 997.33 997.75 998.26 998.93 999.46 1000.20 1000.88 1001.29 1001.43 1001.72 1001.78
1008.00 1007.12 1006.22 1005.47 1005.27 1005.21 1005.01 1004.91 1004.23 1003.78 1003.34 1001.98 1001.57 1001.81 1002.11 1003.32 1003.36 1002.42 1002.68 1002.35 1002.90 1003.10 1002.02 1000.21 999.49 998.15 998.13 997.90 997.27 997.35 997.53 997.84 998.09 998.99 999.10 999.15 999.89 1000.76 1001.06 1001.32 1001.62 1001.94 1002.19 1002.49
1008.75 1008.92 1008.77 1008.32 1008.00 1007.69 1007.18 1006.69 1005.94 1005.58 1004.96 1003.34 1003.51 1004.30 1004.28 1004.91 1004.36 1004.20 1003.49 1003.20 1004.79 1004.59 1003.49 1002.36 1001.84 999.32 999.36 999.25 998.95 998.88 999.32 999.86 1000.02 1000.32 1000.67 1001.02 1001.05 1001.46 1001.96 1002.58 1003.09 1003.59 1003.56 1003.50
1009.23 1008.80 1009.03 1009.24 1009.07 1008.81 1008.43 1007.92 1007.51 1007.00 1006.52 1005.43 1005.73 1005.62 1005.23 1005.20 1005.78 1005.87 1006.40 1006.82 1006.68 1005.67 1004.43 1004.16 1002.98 1002.23 1001.89 1001.47 1001.36 1001.04 1001.27 1001.42 1001.46 1001.57 1001.93 1002.41 1002.83 1003.19 1003.60 1003.85 1004.42 1004.95 1004.82 1004.67
1010.18 1009.51 1008.97 1008.76 1008.70 1008.79 1008.63 1008.55 1008.23 1007.88 1007.19 1006.99 1007.35 1007.49 1007.35 1007.55 1007.73 1007.63 1007.77 1008.10 1007.46 1006.91 1006.07 1005.91 1004.41 1004.50 1004.74 1003.99 1003.83 1002.87 1003.08 1003.58 1003.53 1003.35 1002.92 1003.16 1003.61 1003.95 1004.52 1004.77 1005.29 1005.99 1006.13 1005.46
1010.30 1009.82 1009.30 1008.93 1008.79 1008.58 1008.47 1008.32 1007.74 1007.03 1006.63 1007.33 1007.60 1007.69 1007.74 1007.47 1007.30 1007.44 1007.46 1007.34 1007.59 1006.64 1006.52 1006.58 1005.36 1004.91 1004.80 1004.85 1004.74 1004.36 1005.50 1005.79 1005.05 1005.04 1004.78 1004.68 1004.82 1005.29 1004.87 1005.94 1006.63 1006.89 1007.11 1006.62
1010.55 1009.80 1009.61 1009.07 1008.77 1008.68 1008.73 1008.62 1008.33 1008.17 1008.19 1008.30 1008.19 1008.01 1007.99 1007.80 1008.03 1008.06 1007.88 1007.72 1008.11 1006.88 1006.58 1006.72 1006.35 1005.81 1005.32 1005.26 1005.26 1006.11 1006.14 1006.43 1006.60 1006.96 1006.65 1006.64 1006.33 1006.64 1006.88 1007.13 1007.15 1007.06 1006.79 1006.90
1010.92 1010.24 1009.80 1009.66 1009.50 1009.27 1009.09 1009.05 1009.33 1009.33 1009.08 1008.84 1008.89 1008.95 1008.86 1008.77 1008.55 1008.59 1008.25 1008.08 1007.57 1007.55 1007.26 1008.00 1007.37 1006.48 1006.34 1006.17 1006.63 1006.95 1007.12 1006.92 1007.11 1007.18 1007.58 1008.01 1008.00 1007.80 1008.13 1008.06 1008.16 1008.37 1008.33 1008.30
1010.88 1010.96 1010.35 1010.05 1009.92 1010.06 1010.18 1010.14 1009.99 1010.15 1010.15 1009.64 1009.72 1009.70 1009.57 1009.44 1009.12 1008.97 1008.68 1008.38 1008.47 1008.65 1008.23 1008.22 1008.23 1007.80 1007.58 1007.53 1008.01 1008.06 1007.83 1007.83 1007.79 1007.33 1007.59 1008.04 1008.56 1008.55 1008.48 1008.77 1008.74 1008.85 1009.02 1009.25
Wind_Speed
25 23 23 28 26 29 30 21 22 18 19 15 10 7 7 10 9 13 10 6 7 13 14 17 16 21 20 20 21 22 21 22 23 20 19 18 19 18 18 18 17 18 17 16
19 21 19 22 32 30 29 29 21 23 17 21 15 12 9 11 10 10 8 6 4 2 3 5 9 15 19 19 18 19 20 21 20 20 20 19 19 19 17 18 18 17 18 18
16 17 21 20 12 25 26 24 24 20 17 19 19 18 14 12 9 5 1 4 3 1 3 4 6 6 12 16 14 13 15 16 18 18 19 19 19 18 18 19 17 18 19 19
11 14 17 12 10 14 12 24 23 18 15 10 15 14 11 9 8 8 4 3 2 6 7 6 10 13 9 9 13 12 10 13 13 15 18 18 18 19 18 17 18 17 18 19
6 8 8 12 14 18 13 10 10 20 17 7 13 11 10 8 5 1 4 6 7 9 9 5 8 8 13 12 13 13 13 12 13 14 16 17 19 19 17 16 17 18 18 19
10 7 11 5 17 7 9 12 14 9 2 4 6 5 10 15 15 14 12 10 9 10 11 12 10 9 12 14 13 14 16 15 12 15 14 17 17 18 16 16 17 14 18 19
10 7 4 10 20 11 9 7 16 21 8 4 4 11 11 11 11 11 10 11 9 8 8 8 8 7 6 6 10 13 15 14 13 13 15 15 14 14 15 15 14 16 17 16
12 14 12 18 12 10 8 13 16 18 20 18 15 13 13 13 11 11 12 13 14 9 7 8 8 8 6 7 6 4 7 13 13 13 12 12 13 12 14 14 15 15 15 14
7 11 14 15 13 13 13 9 12 12 14 14 14 14 14 13 13 12 13 13 15 14 8 10 10 6 6 7 6 5 5 7 11 11 12 11 12 12 11 12 12 12 12 12
13 16 19 14 14 11 14 13 12 12 13 12 13 15 15 13 13 13 12 14 16 19 10 8 2 2 5 6 6 7 7 6 7 9 10 11 8 10 11 11 11 11 10 11
20 18 18 18 17 18 16 17 16 14 15 13 14 15 14 14 13 14 13 15 16 16 6 8 7 4 6 5 7 6 6 6 7 7 9 9 10 5 10 11 8 11 11 10
16 25 21 23 23 24 19 18 16 15 16 15 13 12 14 12 12 12 10 18 15 8 7 5 5 5 6 7 6 4 6 6 7 7 8 8 8 8 18 12 12 15 13 7
25 27 29 26 27 28 23 22 20 16 15 14 14 11 14 14 13 14 9 18 18 10 4 4 4 4 4 5 7 5 7 6 7 8 8 10 9 10 9 6 9 8 14 11
27 27 28 32 23 24 21 21 21 21 19 16 14 13 16 15 14 16 9 15 18 7 3 1 3 6 4 5 3 2 3 4 3 5 6 6 4 5 3 7 6 4 11 10
17 19 28 27 22 23 22 19 20 18 19 17 15 16 14 16 17 11 9 15 15 7 5 2 3 3 6 3 4 3 3 3 4 8 8 6 5 4 6 5 4 4 4 4
12 12 15 24 22 18 17 19 21 19 18 18 17 17 16 18 18 11 12 15 9 4 4 4 4 4 8 3 3 2 3 3 5 7 6 6 5 6 5 5 5 4 4 4
20 14 9 3 9 13 15 14 16 17 17 18 18 16 16 19 13 12 15 2 3 7 4 6 2 5 7 6 9 6 6 4 7 7 7 7 7 6 5 4 3 2 6 4
19 17 19 9 5 7 11 13 8 10 15 18 16 18 9 7 2 10 10 4 4 6 7 3 2 2 3 3 3 8 8 7 6 7 7 9 7 6 5 5 6 5 5 3
27 26 24 23 19 15 15 11 12 10 11 14 19 17 19 17 12 15 14 16 18 14 14 10 11 10 11 11 6 8 7 8 9 8 7 8 10 9 10 8 8 7 6 5
24 27 27 27 28 25 21 19 19 16 13 20 21 22 24 19 14 16 18 20 17 11 15 21 11 11 12 11 15 12 12 13 12 11 11 10 10 9 9 9 7 6 6 5
17 16 18 19 18 16 15 14 13 14 15 22 23 20 20 17 20 17 19 18 20 18 15 21 17 13 11 12 12 12 11 11 12 12 12 11 11 13 11 10 9 9 8 9
17 14 14 11 13 15 15 14 15 14 13 21 21 19 19 20 18 18 17 12 9 21 14 9 13 26 18 18 13 14 14 13 12 11 11 11 11 11 10 10 11 9 8 8
14 13 9 10 9 9 10 9 8 12 17 17 13 11 12 9 7 9 10 9 9 12 10 9 12 21 24 14 13 14 15 14 12 11 5 9 9 10 9 10 9 9 8 9
12 9 10 7 9 9 10 8 11 12 12 12 14 12 10 9 8 8 7 5 4 10 9 9 13 12 9 9 12 14 11 9 11 11 13 15 13 12 10 9 8 10 9 9
11 9 9 10 9 8 9 12 10 10 12 12 11 10 11 9 7 5 6 7 8 8 9 14 11 14 10 9 10 9 10 10 9 9 11 10 11 11 11 11 11 9 8 10
8 8 6 9 9 10 8 7 8 9 9 7 8 8 8 7 7 8 7 6 8 9 8 8 9 8 9 10 10 11 10 7 9 10 10 8 9 9 9 9 10 10 11 12
8 10 10 9 7 7 7 8 9 10 9 9 8 8 8 7 7 7 8 8 8 7 7 7 8 9 10 10 10 9 8 8 10 8 8 7 7 6 6 6 7 7 8 9
Wind_Direction
256 238 232 191 208 214 211 224 214 224 220 136 137 126 135 151 182 187 137 111 148 190 176 185 178 179 189 193 191 194 198 197 205 205 207 210 210 211 210 212 213 211 209 212
266 261 271 266 198 212 214 221 223 234 226 134 130 120 141 103 75 69 85 127 134 143 144 157 157 173 186 193 192 194 197 203 198 201 202 205 211 210 209 212 213 210 212 211
254 253 254 249 244 203 217 210 220 221 234 145 148 151 144 139 156 138 42 323 335 168 177 187 184 185 183 191 193 193 195 197 201 197 201 203 206 209 210 212 210 214 213 213
279 278 242 244 249 251 257 219 213 220 233 186 154 153 139 127 129 152 188 224 280 255 226 230 221 211 196 174 187 200 192 199 196 192 198 199 204 208 211 210 212 214 216 218
275 245 231 243 230 217 237 237 214 215 223 184 84 104 87 84 104 155 268 324 295 310 278 233 207 199 185 193 184 189 205 204 201 194 198 199 204 207 207 210 213 214 217 218
295 273 225 281 232 242 230 227 329 288 310 153 118 167 68 38 38 27 14 359 349 339 337 1 1 336 168 187 186 198 206 209 201 207 203 206 204 205 205 211 216 216 220 221
242 266 295 356 347 354 203 40 9 15 352 247 60 62 56 38 30 12 3 338 336 317 307 307 311 314 316 297 198 196 203 206 206 201 210 209 207 202 206 212 217 218 226 225
246 244 236 51 358 37 41 47 29 23 23 22 24 32 25 15 8 359 351 341 328 300 277 278 278 277 272 275 269 246 204 193 198 201 203 208 205 204 206 210 216 222 224 233
263 254 310 353 357 4 3 25 23 14 14 3 360 356 349 345 347 348 350 330 318 298 261 258 241 207 247 248 240 244 257 190 190 193 197 208 198 203 208 210 218 218 226 232
282 272 289 310 317 329 333 335 341 334 333 336 330 332 330 333 341 337 336 319 310 307 320 303 233 196 273 258 261 245 221 192 175 186 194 200 207 197 206 210 213 222 224 229
303 289 296 289 291 299 306 306 305 309 309 310 313 315 319 325 329 316 323 306 304 295 338 335 31 324 296 265 222 208 213 186 181 198 188 199 207 209 203 215 218 213 217 229
294 306 307 297 306 314 307 275 274 276 274 284 298 308 314 305 310 309 317 305 300 305 310 334 326 330 332 340 310 226 193 191 198 204 187 201 195 210 40 51 86 85 70 50
280 284 285 284 285 284 290 295 294 283 281 285 282 298 298 298 296 298 313 304 301 326 359 355 330 300 323 319 312 243 230 209 200 206 198 177 207 191 186 59 35 91 100 87
258 258 267 267 257 263 262 271 288 285 283 281 282 282 288 283 277 281 306 293 300 274 261 32 285 299 289 302 338 15 96 10 53 121 70 49 55 50 67 157 164 137 74 72
255 244 229 249 254 248 248 255 268 279 283 283 282 280 283 286 280 279 315 299 293 268 218 200 262 308 299 244 233 214 216 96 91 66 65 79 72 68 80 77 66 56 83 70
320 319 299 228 235 241 239 245 243 254 264 273 282 274 281 285 296 306 302 293 247 127 121 157 173 230 277 199 164 136 69 18 135 114 122 108 106 94 94 96 96 88 74 41
20 13 5 66 193 217 229 247 252 250 259 259 271 279 277 275 275 306 279 154 264 135 100 96 132 192 223 229 202 153 146 146 120 142 137 133 131 118 122 132 109 37 89 76
24 33 36 30 172 203 227 246 300 311 274 257 255 242 266 0 292 28 351 57 61 33 42 39 131 87 17 314 227 157 160 160 160 110 97 65 46 80 94 68 58 49 74 145
14 29 36 45 46 51 60 40 40 16 36 81 87 85 79 61 42 63 29 47 41 27 344 330 42 67 63 60 59 65 84 89 80 73 101 88 68 56 65 62 59 46 28 23
32 26 23 26 35 34 38 37 40 33 40 64 66 62 66 49 31 48 51 44 36 16 3 11 345 67 54 54 58 65 64 61 64 46 57 62 83 91 89 84 72 55 56 36
37 52 42 34 39 37 38 22 28 32 31 56 60 54 61 58 44 35 38 41 11 4 19 29 8 27 52 55 43 55 68 75 69 58 52 49 48 51 53 48 53 41 34 26
2 27 59 66 59 51 32 29 36 36 46 61 52 44 47 52 47 47 44 46 12 6 17 26 31 35 34 49 52 53 50 64 63 64 67 65 66 64 61 58 48 36 44 39
358 6 26 51 61 95 90 76 59 59 57 52 60 85 91 87 68 62 55 15 34 14 19 14 29 55 42 37 39 43 43 41 38 38 64 92 87 78 66 61 59 52 26 39
352 358 359 53 56 51 48 62 49 38 49 84 76 64 63 49 51 67 76 98 67 44 29 16 39 31 99 70 48 49 47 41 44 39 41 44 51 42 55 70 73 65 66 54
352 353 25 14 40 48 57 36 33 51 50 39 40 48 46 42 57 49 52 35 6 68 49 14 19 43 42 48 80 79 70 66 55 45 49 48 53 48 48 45 35 47 76 81
27 359 46 39 39 26 34 58 50 24 10 59 46 37 33 40 26 26 37 26 34 25 55 46 15 39 59 48 45 60 53 77 87 82 75 66 62 67 56 55 51 44 34 27
79 27 15 32 45 69 35 35 35 46 26 11 47 33 40 30 25 40 42 36 48 39 30 55 45 41 46 47 45 33 44 54 32 34 71 101 109 103 96 83 84 78 64 53